Вернуться в каталог

STARLINK-3043

АктивенСвязьVLEO
NORAD 49179·PAYLOAD·🇺🇸 United States

Запущен Sep 14, 2021 с Vandenberg Space Force Base

Loading…

Ближайшие Пролёты (ближайшие 24 часа)

TLE

СвежийSource: CelesTrak SupGP

Эпоха: Sep 14, 2026, 21:57 UTC

1 49179C 21082BB  26257.91506944 -.00023905  00000+0 -20035-2 0  2572
2 49179  70.0008 137.3425 0002375 259.8249 120.8525 14.98340735    16

Отслеживайте STARLINK-3043 в реальном времени с AllMySat

Download on the App Store